Regional Weather Roundup
Issued by NWS

Home | Current Version | Previous Version | Text Only | Print | Product List | Glossary Off
Versions: 1 2 3 4 5 6 7 8 9 10 11 12 13 14 15 16 17 18 19 20 21 22 23 24 25 26 27 28 29 30 31 32 33 34 35 36 37 38 39 40 41 42 43 44 45 46 47 48 49 50

000
ASUS43 KLOT 310410
RWRIL

ILLINOIS REGIONAL WEATHER ROUNDUP
NATIONAL WEATHER SERVICE CHICAGO/ROMEOVILLE IL
1100 PM CDT THU OCT 30 2014

NOTE: "FAIR" INDICATES FEW OR NO CLOUDS BELOW 12,000 FEET WITH NO
SIGNIFICANT WEATHER AND/OR OBSTRUCTIONS TO VISIBILITY.

* THESE STATIONS ARE NOT UNDER NWS QUALITY CONTROL. THEY ALSO MAY NOT
  REPORT WEATHER SUCH AS PRECIPITATION OR FOG.

ILZ001-002-007-009-015-016-024-310500-
NORTHWEST ILLINOIS

CITY           SKY/WX    TMP DP  RH WIND       PRES   REMARKS
MOLINE         CLOUDY    46  40  79 W6        30.11R
STERLING*      CLOUDY    46  37  71 NW6       30.09S
SAVANNA*       CLOUDY    48  39  69 NW5       30.10S
$$

ILZ003-004-008-010-011-017-018-310500-
NORTH CENTRAL ILLINOIS

CITY           SKY/WX    TMP DP  RH WIND       PRES   REMARKS
ROCKFORD       LGT RAIN  47  37  68 NW8       30.08F
FREEPORT*      CLOUDY    45  37  75 W6        30.10S
ROCHELLE*      CLOUDY    44  38  79 W5        30.08S
DE KALB*       CLOUDY    45  35  69 W6        30.07S
PERU*          CLOUDY    44  39  82 W5        30.08F
$$

ILZ005-006-012>014-019>023-310500-
NORTHEAST ILLINOIS

CITY           SKY/WX    TMP DP  RH WIND       PRES   REMARKS
CHICAGO-OHARE  CLOUDY    46  36  68 W7        30.04F
CHICAGO-MIDWAY CLOUDY    48  37  65 W7        30.05S
AURORA         CLOUDY    43  36  76 W6        30.07S
LANSING*       CLOUDY    45  37  74 W3        30.05F
JOLIET*        MOCLDY    44  36  73 W5        30.06F
WAUKEGAN       CLOUDY    45  35  68 VRB3      30.03S
DUPAGE AIRPORT CLOUDY    45  37  73 W7        30.05S
KANKAKEE*      MOCLDY    41  38  90 W3        30.07S
WHEELING       CLOUDY    48  35  60 W6        30.06S
MORRIS*        CLOUDY    44  39  84 W5        30.06S
ROMEOVILLE*    MOCLDY    44  37  76 W5        30.06S
NORTHERLY ISL    N/A     48  36  63 W5          N/A
$$

LMZ740>746-310500-
SOUTHERN LAKE MICHIGAN

STATION/POSITION SKY/WX   TEMP    WIND        PRES    VSBY  WAVE
                          AIR SEA DIR/SP/G                  HT/PER
                          (F)     (DEG/KT/KT) (MB)    (MI)  (FT/S)
SOUTHERN BUOY              50 53  280/ 16/ 19 1016.5F         1/ 3
WAUKEGAN HARBOR            48     270/  7/ 10   N/A
HARRISON CRIB              49     260/ 11/ 12   N/A
BURNHAM HARBOR             48     280/  4/  7   N/A
CALUMET HARBOR             47     260/  3/  7 1016.1F
MICHIGAN CITY              50     250/ 14/ 17   N/A
$$

ILZ025>027-034>036-040-047-049-050-058-095>099-310500-
WEST-CENTRAL ILLINOIS

CITY           SKY/WX    TMP DP  RH WIND       PRES   REMARKS
QUINCY         CLOUDY    46  42  86 N6        30.08R
GALESBURG*     CLOUDY    43  41  91 CALM      30.10S
MACOMB*        CLOUDY    44  41  88 N5        30.11S
JACKSONVILLE*  MOCLDY    46  43  90 N3        30.07F
PITTSFIELD*    MOCLDY    46  42  86 N3        30.08S
$$

ILZ028>032-037-038-041>044-048-051>054-059>061-310500-
CENTRAL ILLINOIS

CITY           SKY/WX    TMP DP  RH WIND       PRES   REMARKS
PONTIAC        CLOUDY    43  41  93 W3        30.09S
BLOOMINGTON    MOCLDY    43  42  96 CALM      30.08F
DECATUR        CLOUDY    46  44  93 CALM      30.06S
PEORIA         CLOUDY    46  43  89 CALM      30.09R FOG
LACON*         CLOUDY    42  40  93 CALM      30.08F FOG
LINCOLN*       PTCLDY    45  42  89 CALM      30.07S
SPRINGFIELD    MOCLDY    45  41  86 N3        30.07S
TAYLORVILLE    CLOUDY    45  43  93 SE7       30.05F
$$

ILZ033-039-045-046-055>057-062-063-310500-
EAST-CENTRAL ILLINOIS

CITY           SKY/WX    TMP DP  RH WIND       PRES   REMARKS
CHAMPAIGN      MOCLDY    43  41  93 N5        30.06F
DANVILLE*      MOCLDY    44  41  91 NW3       30.04S
RANTOUL*       PTCLDY    44  42  92 NW3       30.07F
MATTOON        LGT RAIN  46  43  89 CALM      30.05F
PARIS*         LGT RAIN  46  44  93 CALM      30.06F
$$

ILZ079-100>102-310500-
SOUTHWEST ILLINOIS

CITY           SKY/WX    TMP DP  RH WIND       PRES   REMARKS
ALTON          CLOUDY    47  44  91 CALM      30.04S
BELLEVILLE     MOCLDY    50  50  99 SW3       30.02F
CAHOKIA*       PTCLDY    49  47  93 CALM      30.03F
SPARTA*        MOCLDY    49  48  95 CALM      30.05S
$$

ILZ064>066-069>071-074>076-080>082-084>086-088>090-092>094-310500-
SOUTH-CENTRAL ILLINOIS

CITY           SKY/WX    TMP DP  RH WIND       PRES   REMARKS
CARBONDALE     LGT RAIN  51  48  89 CALM      30.03F
CAIRO*         CLOUDY    55  50  85 CALM      30.04F
EFFINGHAM*     CLOUDY    47  43  85 CALM      30.07S
MARION         CLOUDY    52  50  93 CALM      30.04S
MT. VERNON     CLOUDY    48  45  87 CALM      30.04F
CENTRALIA*     CLOUDY    49  46  88 CALM      30.04R
SALEM*         LGT RAIN  51  49  93 CALM      30.05S
METROPOLIS*    CLOUDY    51  51 100 CALM      30.03F
$$

ILZ067-068-072-073-078-083-087-091-310500-
SOUTHEAST ILLINOIS

CITY           SKY/WX    TMP DP  RH WIND       PRES   REMARKS
LAWRENCEVILLE  LGT RAIN  49  45  86 NE7       30.07R
FLORA*         CLOUDY    48  46  90 E7        30.05F
FAIRFIELD*     CLOUDY    49  47  91 CALM      30.04S
HARRISBURG*    CLOUDY    52  47  86 CALM      30.05S
ROBINSON*      RAIN      49  47  92 N3        30.09S
CARMI*         DRIZZLE   52  48  88 CALM      30.04F
$$

ABBREVIATIONS USED IN REMARKS
   TC - TEMPERATURE IN CELSIUS
  WCI - WIND CHILL INDEX
   HX - HEAT INDEX
  VSB - VISIBILITY
$$




USA.gov is the U.S. government's official web portal to all federal, state and local government web resources and services.